Tracking 30743 objects as of 21-Jun-2025
HD Live streaming from Space Station
objects crossing your sky now

FENGYUN 1C DEB

Track FENGYUN 1C DEB now!
10-day predictions


NORAD ID: 31094
Int'l Code: 1999-025BGQ
Perigee: 818.7 km
Apogee: 974.8 km
Inclination: 98.9 °
Period: 102.8 minutes
Semi major axis: 7267 km
RCS: 0.0135 m2 (small)
Launch date: May 10, 1999
Source: People's Republic of China (PRC)
Launch site: Taiyaun Space Center, China (TSC)

Note: This is SATELLITE DEBRIS
Your satellite tracking list
Your tracking list is empty




NASA's NSSDC Master Catalog

Two Line Element Set (TLE):
1 31094U 99025BGQ 25170.39880997  .00001302  00000-0  85048-3 0  9994
2 31094  98.8776  43.1988 0107330 177.6506 182.5185 14.01209153931495
Source of the keplerian elements: AFSPC